Regional Weather Roundup
Issued by NWS

Home | Current Version | Previous Version | Text Only | Print | Product List | Glossary Off
Versions: 1 2 3 4 5 6 7 8 9 10 11 12 13 14 15 16 17 18 19 20 21 22 23 24 25 26 27 28 29 30 31 32 33 34 35 36 37 38 39 40 41 42 43 44 45 46 47 48 49 50

000
ASUS43 KLMK 202102
RWRKY
KENTUCKY REGIONAL WEATHER ROUNDUP
NATIONAL WEATHER SERVICE LOUISVILLE KY
400 PM EST FRI JAN 20 2017

NOTE "FAIR" INDICATES FEW OR NO CLOUDS BELOW 12,000 FEET
WITH NO SIGNIFICANT WEATHER AND/OR OBSTRUCTIONS TO VISIBILITY.

KYZ001>023-026-027-061>063-070>075-202200-
WESTERN AND SOUTH CENTRAL KENTUCKY

CITY           SKY/WX    TMP DP  RH WIND       PRES   REMARKS
PADUCAH        CLOUDY    62  52  69 S14G20    29.64S
HENDERSON      CLOUDY    61  52  72 S10       29.66S
OWENSBORO      CLOUDY    61  54  77 S10       29.69R
HOPKINSVILLE   MOSUNNY   64  55  72 S12       29.69S
BOWLING GREEN  MOSUNNY   65  53  65 S10       29.72S
GLASGOW        NOT AVBL
$$

KYZ024-025-028>034-038-045-046-053-202200-
NORTH CENTRAL KENTUCKY

CITY           SKY/WX    TMP DP  RH WIND       PRES   REMARKS
LOUISVILLE/SDF PTSUNNY   62  48  60 S12G21    29.70S
LOUISVILLE/LOU CLOUDY    62  48  60 S13G20    29.71R
FORT KNOX      PTSUNNY   60  50  69 S12       29.70R
$$

KYZ035>037-039>044-047>052-055>060-089>105-202200-
NORTHEAST KENTUCKY

CITY           SKY/WX    TMP DP  RH WIND       PRES   REMARKS
LEXINGTON      PTSUNNY   62  49  62 SW12      29.74R
COVINGTON      PTSUNNY   60  48  64 SW10G21   29.70R
FRANKFORT      CLOUDY    62  49  62 S12       29.72R
$$

KYZ054-064>069-076>088-106>120-202200-
SOUTHEAST KENTUCKY

CITY           SKY/WX    TMP DP  RH WIND       PRES   REMARKS
JACKSON        CLOUDY    64  50  60 W6        29.75S
LONDON         MOSUNNY   64  48  56 SW15      29.76S
SOMERSET       SUNNY     63  45  51 S8        29.77S
MIDDLESBORO    PTSUNNY   67  50  55 CALM      29.78S
MONTICELLO     PTCLDY    65  51  60 SW12G20   29.78R
$$





USA.gov is the U.S. government's official web portal to all federal, state and local government web resources and services.